Weather History for Saipan, MP

Change the Weather History Date:

Tuesday, January 7, 2014

  Actual Average Record
Temperature  
Mean Temperature 80 °F -  
Max Temperature 84 °F 82 °F 86 °F (2011)
Min Temperature 75 °F 74 °F 73 °F (2002)
Cooling Degree Days 14    
Growing Degree Days 30 (Base 50)    
Moisture  
Dew Point 73 °F    
Average Humidity 81    
Maximum Humidity 94    
Minimum Humidity 69    
Precipitation  
Precipitation 0.04 in - - ()
Sea Level Pressure  
Sea Level Pressure 29.93 in    
Wind  
Wind Speed 9 mph (NE)    
Max Wind Speed 21 mph    
Max Gust Speed 26 mph    
Visibility 10 miles    
Events      
Averages and records for this station are not official NWS values.
T = Trace of Precipitation, MM = Missing Value Source: NWS Daily Summary

Daily Weather History Graph

Daily Weather History Graph

Search for Another Location

Airport:

Trip Planner

Search our weather history database for the weather conditions in past years. The results will help you decide how hot, cold, wet, or windy it might be!

Date:

Astronomy

Jan. 07, 2014 Rise Set
Actual Time 6:44 AM ChST 6:01 PM ChST
Civil Twilight 6:21 AM ChST 6:24 PM ChST
Nautical Twilight 5:55 AM ChST 6:51 PM ChST
Astronomical Twilight 5:28 AM ChST 7:17 PM ChST
Moon 11:14 AM ChST (1/7) 11:48 PM ChST (1/7)
Length of Visible Light 12h 02m
Length of Day
11h 16m
Waxing Crescent, 38% of the Moon is Illuminated
Jan 7
Waxing Crescent
Jan 8
First Quarter
Jan 16
Full
Jan 24
Last Quarter
Jan 31
New

Hourly Weather History & Observations

Time (ChST) Temp. Heat Index Dew Point Humidity Pressure Visibility Wind Dir Wind Speed Gust Speed Precip Events Conditions
12:54 AM 75.9 °F - 72.0 °F 87% 29.96 in 10.0 mi ENE 3.5 mph - 0.00 in   Mostly Cloudy
1:54 AM 75.9 °F - 73.0 °F 91% 29.94 in 10.0 mi Calm Calm - N/A   Clear
2:54 AM 75.9 °F - 73.0 °F 91% 29.92 in 10.0 mi North 5.8 mph - N/A   Clear
3:54 AM 75.0 °F - 73.0 °F 94% 29.92 in 10.0 mi NNW 3.5 mph - N/A   Clear
4:54 AM 77.0 °F - 73.0 °F 88% 29.93 in 10.0 mi NNE 4.6 mph - N/A   Scattered Clouds
5:54 AM 77.0 °F - 70.0 °F 79% 29.93 in 10.0 mi ENE 6.9 mph - N/A   Mostly Cloudy
6:54 AM 75.9 °F - 71.1 °F 85% 29.95 in 10.0 mi NE 5.8 mph - N/A   Mostly Cloudy
7:54 AM 75.9 °F - 73.9 °F 94% 29.98 in 10.0 mi ENE 20.7 mph 26.5 mph N/A   Mostly Cloudy
8:54 AM 80.1 °F 85.4 °F 75.9 °F 87% 29.99 in 10.0 mi NNE 3.5 mph - 0.01 in   Overcast
9:54 AM 82.0 °F 88.6 °F 75.0 °F 79% 29.99 in 10.0 mi ENE 10.4 mph - 0.00 in   Scattered Clouds
10:54 AM 82.9 °F 90.8 °F 75.9 °F 79% 29.96 in 10.0 mi NE 13.8 mph - 0.02 in   Partly Cloudy
11:54 AM 84.0 °F 91.9 °F 75.0 °F 74% 29.94 in 10.0 mi NNE 15.0 mph - N/A   Scattered Clouds
12:54 PM 84.0 °F 90.2 °F 73.0 °F 69% 29.91 in 10.0 mi NE 17.3 mph 21.9 mph N/A   Scattered Clouds
1:54 PM 82.9 °F 89.4 °F 73.9 °F 74% 29.89 in 10.0 mi NE 15.0 mph - N/A   Mostly Cloudy
2:54 PM 82.9 °F 88.8 °F 73.0 °F 72% 29.88 in 10.0 mi NE 16.1 mph 24.2 mph N/A   Scattered Clouds
3:54 PM 82.0 °F 87.4 °F 73.0 °F 74% 29.88 in 10.0 mi NE 15.0 mph 23.0 mph 0.00 in   Mostly Cloudy
4:54 PM 81.0 °F 85.2 °F 72.0 °F 74% 29.88 in 10.0 mi NE 15.0 mph 21.9 mph N/A   Scattered Clouds
5:54 PM 79.0 °F - 72.0 °F 79% 29.90 in 10.0 mi NE 13.8 mph - N/A   Clear
6:54 PM 79.0 °F - 72.0 °F 79% 29.91 in 10.0 mi NE 12.7 mph - N/A   Scattered Clouds
7:54 PM 79.0 °F - 70.0 °F 74% 29.93 in 10.0 mi NE 15.0 mph - N/A   Partly Cloudy
8:54 PM 78.1 °F - 72.0 °F 81% 29.94 in 10.0 mi NE 16.1 mph - 0.01 in   Partly Cloudy
9:54 PM 79.0 °F - 71.1 °F 77% 29.94 in 10.0 mi NE 11.5 mph 21.9 mph N/A   Scattered Clouds
10:54 PM 78.1 °F - 72.0 °F 81% 29.94 in 10.0 mi NE 15.0 mph - N/A   Scattered Clouds
11:54 PM 78.1 °F - 72.0 °F 81% 29.94 in 10.0 mi NE 15.0 mph - N/A   Mostly Cloudy